Nebraska City, NE

11:13 AM CDT on July 23, 2017 (GMT -0500)
Nebraska City Municipal

Weather History for KAFK - January, 2014

Change the Weather History Date:

Sunday, January 26, 2014

  Actual Average (KSDA) Record (KSDA)
Temperature  
Mean Temperature 32 °F -  
Max Temperature 54 °F 32 °F 73 °F (2002)
Min Temperature 8 °F 13 °F -11 °F (1991)
Degree Days  
Heating Degree Days 34    
Moisture  
Dew Point 20 °F    
Average Humidity 47    
Maximum Humidity 69    
Minimum Humidity 29    
Precipitation  
Precipitation 0.00 in - - ()
Sea Level Pressure  
Sea Level Pressure 29.76 in    
Wind  
Wind Speed 22 mph (NW)    
Max Wind Speed 37 mph    
Max Gust Speed 48 mph    
Visibility 10 miles    
Events      
Averages and records for this station are not official NWS values.
T = Trace of Precipitation, MM = Missing Value Source: NWS Daily Summary

Daily Weather History Graph

Daily Weather History Graph

Search for Another Location

Airport or City:

Trip Planner

Search our weather history database for the weather conditions in past years. The results will help you decide how hot, cold, wet, or windy it might be!

Date:

Astronomy

Jan. 26, 2014 Rise Set
Actual Time 7:38 AM CST 5:34 PM CST
Civil Twilight 7:09 AM CST 6:03 PM CST
Nautical Twilight 6:36 AM CST 6:36 PM CST
Astronomical Twilight 6:03 AM CST 7:08 PM CST
Moon 3:16 AM CST (1/26) 1:24 PM CST (1/26)
Length of Visible Light 10h 54m
Length of Day
9h 55m
Waning Crescent, 23% of the Moon is Illuminated
Jan 26
Waning Crescent
Jan 30
New
Feb 6
First Quarter
Feb 14
Full
Feb 22
Last Quarter

Hourly Weather History & Observations

Time (CST) Temp. Windchill Dew Point Humidity Pressure Visibility Wind Dir Wind Speed Gust Speed Precip Events Conditions
12:15 AM 43.0 °F 34.0 °F 30.6 °F 62% 29.57 in 10.0 mi WSW 21.9 mph 28.8 mph N/A   Clear
12:35 AM 44.1 °F 34.0 °F 30.6 °F 59% 29.55 in 10.0 mi WSW 29.9 mph 36.8 mph N/A   Clear
12:55 AM 44.2 °F 34.2 °F 30.7 °F 59% 29.56 in 10.0 mi WSW 29.9 mph 36.8 mph N/A   Clear
1:15 AM 44.4 °F 35.7 °F 30.7 °F 59% 29.56 in 10.0 mi WSW 23.0 mph 32.2 mph N/A   Clear
1:35 AM 44.2 °F 35.4 °F 30.6 °F 59% 29.55 in 10.0 mi WSW 23.0 mph 29.9 mph N/A   Clear
1:55 AM 44.6 °F 35.9 °F 30.2 °F 57% 29.54 in 10.0 mi WSW 23.0 mph 31.1 mph N/A   Clear
2:15 AM 45.5 °F 37.1 °F 29.8 °F 54% 29.55 in 10.0 mi West 23.0 mph 27.6 mph N/A   Clear
2:35 AM 45.9 °F 37.8 °F 29.3 °F 52% 29.56 in 10.0 mi West 21.9 mph 26.5 mph N/A   Clear
2:55 AM 46.0 °F 39.6 °F 28.8 °F 51% 29.56 in 10.0 mi West 15.0 mph - N/A   Clear
3:15 AM 46.8 °F - 28.2 °F 49% 29.57 in 10.0 mi West 19.6 mph 23.0 mph N/A   Scattered Clouds
3:35 AM 47.5 °F - 27.9 °F 47% 29.58 in 10.0 mi WNW 17.3 mph 23.0 mph N/A   Scattered Clouds
3:55 AM 48.4 °F - 28.0 °F 45% 29.58 in 10.0 mi WNW 19.6 mph 25.3 mph N/A   Clear
4:15 AM 48.7 °F - 28.2 °F 45% 29.59 in 10.0 mi WNW 17.3 mph 24.2 mph N/A   Clear
4:35 AM 48.4 °F - 28.6 °F 46% 29.59 in 10.0 mi WNW 18.4 mph 23.0 mph N/A   Clear
4:55 AM 48.0 °F - 28.8 °F 47% 29.60 in 10.0 mi WNW 18.4 mph 25.3 mph N/A   Clear
5:15 AM 48.0 °F - 29.1 °F 48% 29.61 in 10.0 mi NW 18.4 mph 23.0 mph N/A   Clear
5:35 AM 46.6 °F - 29.7 °F 52% 29.62 in 10.0 mi NW 17.3 mph 24.2 mph N/A   Clear
5:55 AM 44.8 °F 38.0 °F 30.0 °F 56% 29.63 in 10.0 mi NNW 15.0 mph 20.7 mph N/A   Clear
6:15 AM 43.2 °F 37.0 °F 30.2 °F 60% 29.63 in 10.0 mi NNW 11.5 mph - N/A   Clear
6:35 AM 43.7 °F 36.3 °F 31.1 °F 61% 29.64 in 10.0 mi NNW 16.1 mph 20.7 mph N/A   Clear
6:55 AM 42.8 °F 35.1 °F 30.7 °F 62% 29.64 in 10.0 mi NNW 16.1 mph 23.0 mph N/A   Clear
7:15 AM 43.0 °F 35.4 °F 30.0 °F 60% 29.65 in 10.0 mi NNW 16.1 mph - N/A   Clear
7:35 AM 42.6 °F 35.2 °F 29.3 °F 59% 29.65 in 10.0 mi NNW 15.0 mph - N/A   Clear
7:55 AM 40.1 °F 34.1 °F 28.8 °F 64% 29.66 in 10.0 mi WNW 9.2 mph - N/A   Clear
8:15 AM 39.2 °F 32.5 °F 29.8 °F 69% 29.66 in 10.0 mi NW 10.4 mph - N/A   Clear
8:35 AM 40.8 °F 34.5 °F 30.0 °F 65% 29.65 in 10.0 mi NW 10.4 mph - N/A   Clear
8:55 AM 42.1 °F 35.7 °F 30.2 °F 63% 29.65 in 10.0 mi NW 11.5 mph - N/A   Clear
9:15 AM 43.7 °F 36.6 °F 30.6 °F 60% 29.65 in 10.0 mi WNW 15.0 mph 20.7 mph N/A   Clear
9:35 AM 45.5 °F 38.9 °F 30.7 °F 56% 29.66 in 10.0 mi WNW 15.0 mph - N/A   Clear
9:55 AM 46.4 °F 39.0 °F 29.5 °F 52% 29.66 in 10.0 mi NW 19.6 mph 25.3 mph N/A   Clear
10:15 AM 47.5 °F - 29.3 °F 49% 29.67 in 10.0 mi WNW 16.1 mph 26.5 mph N/A   Clear
10:35 AM 47.8 °F - 28.2 °F 47% 29.67 in 10.0 mi NW 17.3 mph 27.6 mph N/A   Clear
10:55 AM 48.7 °F - 28.0 °F 45% 29.67 in 10.0 mi WNW 20.7 mph 24.2 mph N/A   Clear
11:15 AM 49.3 °F - 27.7 °F 43% 29.67 in 10.0 mi WNW 20.7 mph 26.5 mph N/A   Clear
11:35 AM 50.2 °F - 26.4 °F 40% 29.66 in 10.0 mi West 20.7 mph 25.3 mph N/A   Clear
11:55 AM 50.7 °F - 25.7 °F 38% 29.65 in 10.0 mi West 17.3 mph 26.5 mph N/A   Clear
12:15 PM 51.3 °F - 25.7 °F 37% 29.64 in 10.0 mi WNW 18.4 mph 24.2 mph N/A   Clear
12:35 PM 52.0 °F - 25.9 °F 36% 29.63 in 10.0 mi WNW 16.1 mph 26.5 mph N/A   Clear
12:55 PM 53.2 °F - 25.5 °F 34% 29.62 in 10.0 mi WNW 21.9 mph 33.4 mph N/A   Clear
1:15 PM 52.5 °F - 25.3 °F 35% 29.61 in 10.0 mi West 17.3 mph 28.8 mph N/A   Clear
1:35 PM 52.0 °F - 24.8 °F 35% 29.60 in 10.0 mi WNW 21.9 mph 27.6 mph N/A   Clear
1:55 PM 51.8 °F - 25.0 °F 35% 29.61 in 10.0 mi WNW 18.4 mph 24.2 mph N/A   Clear
2:15 PM 53.4 °F - 25.7 °F 34% 29.61 in 10.0 mi WNW 18.4 mph 27.6 mph N/A   Clear
2:35 PM 52.7 °F - 25.7 °F 35% 29.61 in 10.0 mi WNW 15.0 mph 25.3 mph N/A   Mostly Cloudy
2:55 PM 54.5 °F - 25.7 °F 33% 29.61 in 10.0 mi WNW 21.9 mph 25.3 mph N/A   Overcast
3:15 PM 52.9 °F - 24.8 °F 34% 29.61 in 10.0 mi NW 19.6 mph 26.5 mph N/A   Overcast
3:35 PM 52.7 °F - 25.2 °F 34% 29.63 in 10.0 mi NW 17.3 mph 26.5 mph N/A   Overcast
3:55 PM 52.3 °F - 24.6 °F 34% 29.65 in 10.0 mi NNW 26.5 mph 41.4 mph N/A   Overcast
4:15 PM 43.9 °F 33.8 °F 26.6 °F 51% 29.70 in 10.0 mi NNW 29.9 mph 46.0 mph N/A   Overcast
4:35 PM 39.9 °F 27.8 °F 21.2 °F 47% 29.75 in 10.0 mi North 33.4 mph 40.3 mph N/A   Overcast
4:55 PM 37.4 °F 23.8 °F 19.0 °F 48% 29.78 in 10.0 mi NNW 36.8 mph 44.9 mph N/A   Overcast
5:15 PM 36.5 °F 22.7 °F 16.7 °F 45% 29.81 in 10.0 mi NNW 35.7 mph 46.0 mph N/A   Overcast
5:35 PM 33.6 °F 19.6 °F 5.7 °F 31% 29.85 in 10.0 mi North 31.1 mph 46.0 mph N/A   Overcast
5:55 PM 32.0 °F 17.6 °F 2.7 °F 29% 29.89 in 10.0 mi NNW 29.9 mph 47.2 mph N/A   Mostly Cloudy
6:15 PM 30.9 °F 16.7 °F 2.8 °F 30% 29.92 in 10.0 mi NNW 27.6 mph 42.6 mph N/A   Scattered Clouds
6:35 PM 29.3 °F 12.6 °F 0.7 °F 29% 29.94 in 10.0 mi North 36.8 mph 48.3 mph N/A   Mostly Cloudy
6:55 PM 27.5 °F 10.6 °F 3.7 °F 36% 29.98 in 10.0 mi North 34.5 mph 43.7 mph N/A   Overcast
7:15 PM 24.4 °F 9.2 °F 4.5 °F 42% 30.01 in 10.0 mi North 23.0 mph 42.6 mph N/A   Overcast
7:35 PM 22.6 °F 4.4 °F 4.1 °F 45% 30.05 in 10.0 mi North 32.2 mph 40.3 mph N/A   Scattered Clouds
7:55 PM 21.4 °F 3.8 °F 1.9 °F 43% 30.08 in 10.0 mi North 27.6 mph 42.6 mph N/A   Clear
8:15 PM 20.1 °F 1.8 °F -0.9 °F 40% 30.10 in 10.0 mi NNW 28.8 mph 42.6 mph N/A   Clear
8:35 PM 19.2 °F 1.5 °F -0.8 °F 42% 30.13 in 10.0 mi North 25.3 mph 39.1 mph N/A   Mostly Cloudy
8:55 PM 17.8 °F -1.7 °F -3.1 °F 40% 30.15 in 10.0 mi North 29.9 mph 42.6 mph N/A   Scattered Clouds
9:15 PM 16.9 °F -2.3 °F -2.4 °F 43% 30.16 in 10.0 mi North 27.6 mph 38.0 mph N/A   Scattered Clouds
9:35 PM 15.8 °F -2.3 °F -3.6 °F 42% 30.18 in 10.0 mi North 23.0 mph 44.9 mph N/A   Clear
9:55 PM 14.9 °F -3.9 °F -4.5 °F 42% 30.20 in 10.0 mi North 24.2 mph 39.1 mph N/A   Clear
10:15 PM 13.6 °F -6.6 °F -4.9 °F 44% 30.22 in 10.0 mi North 27.6 mph 35.7 mph N/A   Clear
10:35 PM 12.7 °F -8.5 °F -6.7 °F 42% 30.22 in 10.0 mi North 29.9 mph 43.7 mph N/A   Clear
10:55 PM 12.0 °F -6.9 °F -5.8 °F 45% 30.24 in 10.0 mi North 21.9 mph 33.4 mph N/A   Clear
11:15 PM 10.8 °F -10.5 °F -4.0 °F 52% 30.25 in 10.0 mi North 27.6 mph 36.8 mph N/A   Clear
11:35 PM 9.5 °F -12.2 °F -7.2 °F 47% 30.28 in 10.0 mi North 27.6 mph 34.5 mph N/A   Clear
11:55 PM 8.6 °F -14.5 °F -10.8 °F 41% 30.29 in 10.0 mi North 31.1 mph 38.0 mph N/A   Clear